STARLINK-1831 (46728 NORAD) Tracking and Keplerian Element Data

This shows tracking and keplerian element data for the satellite.

Feedback or suggestion? Click here.




ElementValue
Catalog46728
NameSTARLINK-1831
Epoch Orbit181
Epoch Day336.91667824
Epoch Year2020
RAAN250.9768
Inclination53.0557
Eccentricity0.0001318
Argument of Perigee59.9211
Mean Anonmoly30.3614
Mean Motion15.62777034
Decay Rate-2.696E-05
L11 46728U 20073BL 20336.91667824 -.00002696 00000-0 -23600-4 0 9996
L22 46728 53.0557 250.9768 0001318 59.9211 30.3614 15.62777034 1810

Live tracking and technical data element details for STARLINK-1831 (NORAD 46728). STARLINK-1831 can be tracked NOW for your location showing map with azimuth and elevation plus other details from your city location.

Track the satellite on the map from your city or location and see movement details for azimuth, elevation, latitude, longitude, range, height, and movement on the map or in text.







IsCatalogInMostPopularTable: catalog: 46728, numindb: 9
Update: records affected: 1



GetName: 46728 STARLINK-1831

Hit Count: updated at: Thu, 03 Dec 2020 06:51:07 GMT